Regional Weather Roundup
Issued by NWS

Home | Current Version | Previous Version | Graphics & Text | Print | Product List | Glossary On
Versions: 1 2 3 4 5 6 7 8 9 10 11 12 13 14 15 16 17 18 19 20 21 22 23 24 25 26 27 28 29 30 31 32 33 34 35 36 37 38 39 40 41 42 43 44 45 46 47 48 49 50
000
ASUS43 KLSX 070707
RWRMO

WEATHER SUMMARY FOR MISSOURI
NATIONAL WEATHER SERVICE SPRINGFIELD MO
100 AM CST WED DEC 07 2016

NOTE: "FAIR" INDICATES FEW OR NO CLOUDS BELOW 12,000 FEET WITH NO
       SIGNIFICANT WEATHER AND/OR OBSTRUCTIONS TO VISIBILITY.
       CURRENT SKY AND/OR WEATHER CONDITIONS ARE NOT AVAILABLE FOR
       CHILLICOTHE AND FARMINGTON.

MOZ001>031-035>038-043-044-053-054-070800-
...NORTHERN AND WESTERN MISSOURI...

CITY           SKY/WX    TMP DP  RH WIND       PRES   REMARKS
KANSAS CTY INT CLOUDY    30  13  49 NW7       30.15R WCI  23
KANSAS C DTWN  CLOUDY    33  16  49 NW6       30.17R WCI  28
LEE`S SUMMIT   CLOUDY    32  16  51 N7        30.15R WCI  26
ST JOSEPH      CLOUDY    29  18  63 N7        30.17R WCI  22
CHILLICOTHE      N/A     30  16  56 NW3       30.16R
KIRKSVILLE     PTCLDY    28  15  58 NW9       30.12F WCI  19

$$
MOZ066>068-077>081-088>096-101>105-070800-
...SOUTHWEST MISSOURI...

CITY           SKY/WX    TMP DP  RH WIND       PRES   REMARKS
SPRINGFIELD    MOCLDY    30  19  63 N8        30.11F WCI  22
JOPLIN         PTCLDY    30  20  66 NE5       30.15R WCI  25
BRANSON        CLEAR     30  23  74 CALM      30.12S

$$
MOZ032>034-039>042-045>050-055>058-069>072-070800-
...CENTRAL MISSOURI...

CITY           SKY/WX    TMP DP  RH WIND       PRES   REMARKS
COLUMBIA       PTCLDY    29  17  61 NW3       30.13F
JEFFERSON CITY PTCLDY    26  20  77 CALM      30.15S
ROLLA          PTCLDY    29  20  69 N5        30.11R WCI  24
SEDALIA        CLOUDY    31  18  58 NW6       30.16R WCI  25
WHITEMAN AFB   MOCLDY    30  19  65 CALM      30.15R
WARRENSBURG    CLOUDY    30  19  64 CALM      30.17R
OSAGE BEACH    PTCLDY    30  17  58 CALM      30.16S

$$
MOZ051-052-059>065-070800-
...EAST CENTRAL MISSOURI...

CITY           SKY/WX    TMP DP  RH WIND       PRES   REMARKS
ST LOUIS INTL  CLOUDY    34  18  52 NW8       30.13S WCI  27
SPIRIT OF STL  CLOUDY    31  20  63 W5        30.14R WCI  26
ST CHARLES     PTCLDY    33  18  53 NW6       30.14R WCI  28

$$
MOZ072>076-082>087-097>100-106>115-070800-
...SOUTH CENTRAL AND SOUTHEAST MISSOURI...

CITY           SKY/WX    TMP DP  RH WIND       PRES   REMARKS
CAPE GIRARDEAU CLOUDY    37  28  70 N6        30.12R
FARMINGTON     PTCLDY    32  22  66 N6        30.12R WCI  26
POPLAR BLUFF   CLOUDY    37  35  92 CALM      30.13S
WEST PLAINS    PTCLDY    33  20  58 N7        30.11R WCI  27

$$



USA.gov is the U.S. government's official web portal to all federal, state and local government web resources and services.